TimeCDT,TemperatureF,Dew PointF,Humidity,Sea Level PressureIn,VisibilityMPH,Wind Direction,Wind SpeedMPH,Gust SpeedMPH,PrecipitationIn,Events,Conditions,WindDirDegrees,DateUTC
12:52 AM,61.0,52.0,72,30.06,10.0,ENE,11.5,-,N/A,,Overcast,60,2013-08-08 05:52:00
1:52 AM,60.1,52.0,75,30.05,10.0,ENE,6.9,-,N/A,,Overcast,60,2013-08-08 06:52:00
2:52 AM,60.1,54.0,80,30.04,10.0,ENE,5.8,-,N/A,,Overcast,60,2013-08-08 07:52:00
3:52 AM,59.0,55.0,87,30.04,10.0,NE,5.8,-,0.00,,Overcast,40,2013-08-08 08:52:00
4:52 AM,60.1,52.0,75,30.04,10.0,East,4.6,-,N/A,,Overcast,90,2013-08-08 09:52:00
5:52 AM,60.1,53.1,78,30.05,10.0,North,5.8,-,0.00,,Overcast,350,2013-08-08 10:52:00
6:52 AM,59.0,53.1,81,30.05,10.0,North,3.5,-,N/A,,Overcast,10,2013-08-08 11:52:00
7:52 AM,60.1,53.1,78,30.07,10.0,North,3.5,-,N/A,,Overcast,360,2013-08-08 12:52:00
8:52 AM,62.1,54.0,75,30.08,10.0,NNE,4.6,-,N/A,,Clear,20,2013-08-08 13:52:00
9:52 AM,64.9,53.1,65,30.09,10.0,NE,4.6,-,N/A,,Clear,40,2013-08-08 14:52:00
10:52 AM,69.1,51.1,53,30.09,10.0,North,-9999.0,-,N/A,,Clear,0,2013-08-08 15:52:00
11:52 AM,71.1,46.0,41,30.08,10.0,Variable,3.5,-,N/A,,Clear,0,2013-08-08 16:52:00
12:52 PM,72.0,46.9,41,30.08,10.0,ENE,4.6,-,N/A,,Clear,70,2013-08-08 17:52:00
1:52 PM,72.0,46.0,40,30.07,10.0,NW,3.5,-,N/A,,Partly Cloudy,320,2013-08-08 18:52:00
2:52 PM,75.9,45.0,33,30.06,10.0,NE,6.9,-,N/A,,Scattered Clouds,50,2013-08-08 19:52:00
3:52 PM,75.9,44.1,32,30.06,10.0,North,8.1,-,N/A,,Clear,360,2013-08-08 20:52:00
4:52 PM,78.1,45.0,31,30.05,10.0,Variable,6.9,-,N/A,,Mostly Cloudy,0,2013-08-08 21:52:00
5:52 PM,75.9,44.1,32,30.05,10.0,Variable,5.8,-,N/A,,Clear,0,2013-08-08 22:52:00
6:52 PM,75.0,48.0,38,30.05,10.0,NNE,8.1,-,N/A,,Partly Cloudy,30,2013-08-08 23:52:00
7:52 PM,73.0,48.0,41,30.05,10.0,North,10.4,-,N/A,,Clear,10,2013-08-09 00:52:00
8:52 PM,70.0,48.9,47,30.06,10.0,NNE,5.8,-,N/A,,Clear,20,2013-08-09 01:52:00
9:52 PM,66.9,50.0,54,30.09,10.0,North,5.8,-,N/A,,Clear,10,2013-08-09 02:52:00
10:52 PM,61.0,51.1,70,30.10,10.0,ENE,5.8,-,N/A,,Clear,60,2013-08-09 03:52:00
11:52 PM,60.1,52.0,75,30.11,10.0,ENE,6.9,-,N/A,,Clear,60,2013-08-09 04:52:00